DEMYK EDHL-EDDH

Flight info

Callsign DEMYK
Flight time 0h 22m
Altitude
Route
Aircraft P28A

Departure

Time 2026-05-07 17:59
Airport Lübeck Blankensee Airport (EDHL)

Arrival

Time 2026-05-07 18:21
Airport Hamburg Helmut Schmidt Airport (EDDH)
Time Latitude Longitude Altitude Speed Heading
2026-05-07 17:51 53.79971 10.70281 60 ft 0 kts 86°
2026-05-07 17:57 53.79972 10.70284 60 ft 3 kts 43°
2026-05-07 17:57 53.79979 10.70248 60 ft 7 kts 302°
2026-05-07 17:57 53.80035 10.70221 55 ft 0 kts 348°
2026-05-07 17:57 53.80036 10.70221 56 ft 0 kts 348°
2026-05-07 17:58 53.80066 10.70211 57 ft 14 kts 348°
2026-05-07 17:58 53.80180 10.70180 56 ft 15 kts 12°
2026-05-07 17:58 53.80251 10.70454 53 ft 54 kts 69°
2026-05-07 17:59 53.80394 10.71180 249 ft 73 kts 65°
2026-05-07 17:59 53.80557 10.72048 528 ft 82 kts 71°
2026-05-07 17:59 53.80729 10.73101 749 ft 102 kts 69°
2026-05-07 17:59 53.81243 10.73905 947 ft 116 kts 12°
2026-05-07 18:00 53.81989 10.73323 1177 ft 133 kts 315°
2026-05-07 18:00 53.82382 10.71884 1437 ft 136 kts 290°
2026-05-07 18:00 53.82616 10.70303 1668 ft 141 kts 283°
2026-05-07 18:00 53.82791 10.68650 1923 ft 144 kts 282°
2026-05-07 18:01 53.82954 10.66968 2121 ft 149 kts 281°
2026-05-07 18:01 53.83111 10.65124 2027 ft 161 kts 277°
2026-05-07 18:01 53.83143 10.63240 1928 ft 162 kts 272°
2026-05-07 18:01 53.83167 10.61362 1963 ft 157 kts 273°
2026-05-07 18:02 53.83235 10.57694 1960 ft 155 kts 274°
2026-05-07 18:02 53.83269 10.55857 1931 ft 157 kts 273°
2026-05-07 18:02 53.83291 10.54024 1925 ft 157 kts 272°
2026-05-07 18:03 53.83309 10.52189 1867 ft 152 kts 272°
2026-05-07 18:03 53.83298 10.50433 1888 ft 147 kts 270°
2026-05-07 18:03 53.83304 10.48707 1951 ft 147 kts 272°
2026-05-07 18:03 53.83335 10.46970 2008 ft 149 kts 272°
2026-05-07 18:04 53.83360 10.45208 2041 ft 152 kts 271°
2026-05-07 18:04 53.83339 10.43418 2041 ft 155 kts 270°
2026-05-07 18:04 53.83314 10.41571 1990 ft 156 kts 270°
2026-05-07 18:04 53.83317 10.39738 1969 ft 155 kts 270°
2026-05-07 18:05 53.83308 10.37919 1997 ft 153 kts 270°
2026-05-07 18:05 53.83290 10.36100 1992 ft 156 kts 270°
2026-05-07 18:05 53.83223 10.34275 2018 ft 155 kts 258°
2026-05-07 18:05 53.82942 10.32543 2095 ft 151 kts 253°
2026-05-07 18:06 53.82637 10.30849 2104 ft 155 kts 251°
2026-05-07 18:06 53.82285 10.29069 1984 ft 160 kts 249°
2026-05-07 18:06 53.81838 10.27336 1798 ft 159 kts 241°
2026-05-07 18:06 53.81490 10.25601 1709 ft 157 kts 270°
2026-05-07 18:07 53.81784 10.23851 1765 ft 154 kts 290°
2026-05-07 18:07 53.82094 10.22082 1895 ft 157 kts 286°
2026-05-07 18:07 53.82314 10.20236 1966 ft 161 kts 283°
2026-05-07 18:07 53.82528 10.18401 2058 ft 159 kts 282°
2026-05-07 18:08 53.82730 10.16583 2031 ft 158 kts 282°
2026-05-07 18:08 53.82945 10.14753 1996 ft 158 kts 281°
2026-05-07 18:08 53.83035 10.12912 1983 ft 158 kts 271°
2026-05-07 18:08 53.83040 10.11062 2001 ft 156 kts 270°
2026-05-07 18:09 53.83065 10.09208 1969 ft 158 kts 272°
2026-05-07 18:09 53.83105 10.07342 1933 ft 159 kts 272°
2026-05-07 18:09 53.83195 10.05485 1937 ft 158 kts 277°
2026-05-07 18:09 53.83316 10.03652 1958 ft 158 kts 275°
2026-05-07 18:10 53.83391 10.01827 2011 ft 154 kts 274°
2026-05-07 18:10 53.83422 9.99996 1991 ft 157 kts 271°
2026-05-07 18:10 53.83403 9.98119 1939 ft 161 kts 269°
2026-05-07 18:10 53.83377 9.96228 1935 ft 161 kts 270°
2026-05-07 18:11 53.83428 9.94350 1938 ft 159 kts 274°
2026-05-07 18:11 53.83486 9.93092 1958 ft 159 kts 276°
2026-05-07 18:11 53.83358 9.90649 1987 ft 158 kts 252°
2026-05-07 18:11 53.82966 9.88930 2026 ft 155 kts 247°
2026-05-07 18:12 53.82577 9.87224 2030 ft 157 kts 247°
2026-05-07 18:12 53.82174 9.85574 2042 ft 157 kts 246°
2026-05-07 18:12 53.81744 9.83891 2074 ft 156 kts 246°
2026-05-07 18:12 53.81456 9.82770 2058 ft 157 kts 246°
2026-05-07 18:13 53.81032 9.81087 2093 ft 154 kts 245°
2026-05-07 18:13 53.80552 9.79439 2008 ft 158 kts 241°
2026-05-07 18:13 53.79922 9.77211 1988 ft 157 kts 247°
2026-05-07 18:13 53.79484 9.75555 2045 ft 153 kts 244°
2026-05-07 18:14 53.79171 9.74486 2030 ft 154 kts 236°
2026-05-07 18:14 53.78355 9.73377 1961 ft 153 kts 195°
2026-05-07 18:14 53.77335 9.73414 1935 ft 145 kts 156°
2026-05-07 18:14 53.76413 9.73995 2000 ft 139 kts 155°
2026-05-07 18:15 53.75498 9.74549 2034 ft 141 kts 155°
2026-05-07 18:15 53.74553 9.75088 2014 ft 145 kts 156°
2026-05-07 18:15 53.73596 9.75629 2019 ft 145 kts 156°
2026-05-07 18:15 53.72647 9.76197 1980 ft 145 kts 154°
2026-05-07 18:16 53.71686 9.76770 1938 ft 144 kts 154°
2026-05-07 18:16 53.70779 9.77352 1874 ft 139 kts 154°
2026-05-07 18:16 53.69877 9.77936 1849 ft 138 kts 154°
2026-05-07 18:16 53.68976 9.78525 1800 ft 139 kts 153°
2026-05-07 18:17 53.68079 9.79140 1762 ft 136 kts 152°
2026-05-07 18:17 53.67221 9.79758 1719 ft 132 kts 146°
2026-05-07 18:17 53.66477 9.80619 1726 ft 128 kts 137°
2026-05-07 18:17 53.65875 9.81698 1774 ft 127 kts 126°
2026-05-07 18:18 53.65275 9.82842 1845 ft 129 kts 127°
2026-05-07 18:18 53.64711 9.83952 1878 ft 122 kts 126°
2026-05-07 18:18 53.64178 9.85060 1908 ft 122 kts 124°
2026-05-07 18:18 53.63656 9.86194 1945 ft 122 kts 123°
2026-05-07 18:19 53.63144 9.87365 1911 ft 127 kts 121°
2026-05-07 18:19 53.62649 9.88596 1853 ft 129 kts 118°
2026-05-07 18:19 53.62190 9.89892 1628 ft 132 kts 115°
2026-05-07 18:19 53.61754 9.91265 1446 ft 128 kts 115°
2026-05-07 18:20 53.61328 9.92513 1075 ft 121 kts 115°
2026-05-07 18:20 53.61011 9.93686 859 ft 98 kts 100°
2026-05-07 18:20 53.61064 9.94739 546 ft 86 kts 63°
2026-05-07 18:20 53.61427 9.95544 359 ft 86 kts 50°
2026-05-07 18:21 53.61767 9.96242 194 ft 74 kts 50°
2026-05-07 18:21 53.62085 9.96894 67 ft 71 kts 50°
2026-05-07 18:21 53.62346 9.97417 35 ft 46 kts 50°
2026-05-07 18:21 53.62534 9.97800 36 ft 44 kts 51°
2026-05-07 18:22 53.62725 9.98192 37 ft 44 kts 50°
2026-05-07 18:22 53.62851 9.98449 39 ft 39 kts 50°
2026-05-07 18:22 53.63067 9.98901 41 ft 28 kts 65°
2026-05-07 18:22 53.63090 9.99165 41 ft 8 kts 97°
2026-05-07 18:23 53.63088 9.99190 41 ft 0 kts 96°
2026-05-07 18:23 53.63086 9.99202 41 ft 2 kts 108°
2026-05-07 18:23 53.63040 9.99241 41 ft 14 kts 193°
2026-05-07 18:23 53.62946 9.99072 41 ft 26 kts 230°
2026-05-07 18:24 53.62837 9.98929 41 ft 17 kts 162°
2026-05-07 18:24 53.62744 9.99006 41 ft 10 kts 152°
2026-05-07 18:24 53.62677 9.99064 41 ft 15 kts 152°
2026-05-07 18:24 53.62635 9.99101 41 ft 14 kts 152°
2026-05-07 18:25 53.62558 9.99058 41 ft 11 kts 262°
2026-05-07 18:25 53.62594 9.98968 41 ft 9 kts 336°
2026-05-07 18:25 53.62620 9.99009 41 ft 0 kts 61°
2026-05-07 18:25 53.62621 9.99012 41 ft 0 kts 61°